Time,TemperatureF,DewpointF,PressureIn,WindDirection,WindDirectionDegrees,WindSpeedMPH,WindSpeedGustMPH,Humidity,HourlyPrecipIn,Conditions,Clouds,dailyrainin,SolarRadiationWatts/m^2,SoftwareType,DateUTC
2013-05-30 00:01:00,38.0,35.0,-100.00,WNW,290,11.0,22.0,89,0.00,,,0.16,0.000000,,2013-05-30 07:01:00,
2013-05-30 00:12:00,38.0,35.0,-100.00,WNW,290,11.0,22.0,89,0.00,,,0.16,0.000000,,2013-05-30 07:12:00,
2013-05-30 00:21:00,38.0,35.0,-100.00,WNW,290,11.0,22.0,89,0.00,,,0.16,0.000000,,2013-05-30 07:21:00,
2013-05-30 00:31:00,38.0,35.0,-100.00,WNW,290,11.0,22.0,89,0.00,,,0.16,0.000000,,2013-05-30 07:31:00,
2013-05-30 00:52:00,37.0,34.0,-100.00,West,280,10.0,21.0,90,0.00,,,0.14,0.000000,,2013-05-30 07:52:00,
2013-05-30 01:02:00,37.0,34.0,-100.00,West,280,10.0,21.0,90,0.00,,,0.14,0.000000,,2013-05-30 08:02:00,
2013-05-30 01:11:00,37.0,34.0,-100.00,West,280,10.0,21.0,90,0.00,,,0.14,0.000000,,2013-05-30 08:11:00,
2013-05-30 01:21:00,37.0,34.0,-100.00,West,280,10.0,21.0,90,0.00,,,0.14,0.000000,,2013-05-30 08:21:00,
2013-05-30 01:31:00,37.0,34.0,-100.00,West,280,10.0,21.0,90,0.00,,,0.14,0.000000,,2013-05-30 08:31:00,
2013-05-30 01:53:00,36.0,33.0,-100.00,West,278,10.0,19.0,88,0.00,,,0.06,0.000000,,2013-05-30 08:53:00,
2013-05-30 02:01:00,36.0,33.0,-100.00,West,278,10.0,19.0,88,0.00,,,0.06,0.000000,,2013-05-30 09:01:00,
2013-05-30 02:11:00,36.0,33.0,-100.00,West,278,10.0,19.0,88,0.00,,,0.06,0.000000,,2013-05-30 09:11:00,
2013-05-30 02:21:00,36.0,33.0,-100.00,West,278,10.0,19.0,88,0.00,,,0.06,0.000000,,2013-05-30 09:21:00,
2013-05-30 02:32:00,36.0,33.0,-100.00,West,278,10.0,19.0,88,0.00,,,0.06,0.000000,,2013-05-30 09:32:00,
2013-05-30 02:53:00,35.0,32.0,-100.00,West,275,11.0,17.0,90,0.00,,,0.03,0.000000,,2013-05-30 09:53:00,
2013-05-30 03:02:00,35.0,32.0,-100.00,West,275,11.0,17.0,90,0.00,,,0.03,0.000000,,2013-05-30 10:02:00,
2013-05-30 03:12:00,35.0,32.0,-100.00,West,275,11.0,17.0,90,0.00,,,0.03,0.000000,,2013-05-30 10:12:00,
2013-05-30 03:22:00,35.0,32.0,-100.00,West,275,11.0,17.0,90,0.00,,,0.03,0.000000,,2013-05-30 10:22:00,
2013-05-30 03:32:00,35.0,32.0,-100.00,West,275,11.0,17.0,90,0.00,,,0.03,0.000000,,2013-05-30 10:32:00,
2013-05-30 03:52:00,35.0,32.0,-100.00,West,281,9.0,20.0,89,0.00,,,0.03,0.000000,,2013-05-30 10:52:00,
2013-05-30 04:03:00,35.0,32.0,-100.00,West,281,9.0,20.0,89,0.00,,,0.03,0.000000,,2013-05-30 11:03:00,
2013-05-30 04:12:00,35.0,32.0,-100.00,West,281,9.0,20.0,89,0.00,,,0.03,0.000000,,2013-05-30 11:12:00,
2013-05-30 04:21:00,35.0,32.0,-100.00,West,281,9.0,20.0,89,0.00,,,0.03,0.000000,,2013-05-30 11:21:00,
2013-05-30 04:32:00,35.0,32.0,-100.00,West,281,9.0,20.0,89,0.00,,,0.03,0.000000,,2013-05-30 11:32:00,
2013-05-30 04:52:00,34.0,31.0,-100.00,WNW,291,6.0,15.0,87,0.00,,,0.03,0.000000,,2013-05-30 11:52:00,
2013-05-30 05:01:00,34.0,31.0,-100.00,WNW,291,6.0,15.0,87,0.00,,,0.03,0.000000,,2013-05-30 12:01:00,
2013-05-30 05:11:00,34.0,31.0,-100.00,WNW,291,6.0,15.0,87,0.00,,,0.03,0.000000,,2013-05-30 12:11:00,
2013-05-30 05:22:00,34.0,31.0,-100.00,WNW,291,6.0,15.0,87,0.00,,,0.03,0.000000,,2013-05-30 12:22:00,
2013-05-30 05:32:00,34.0,31.0,-100.00,WNW,291,6.0,15.0,87,0.00,,,0.03,0.000000,,2013-05-30 12:32:00,
2013-05-30 05:52:00,34.0,32.0,-100.00,West,280,8.0,15.0,91,0.00,,,0.00,2.000000,,2013-05-30 12:52:00,
2013-05-30 06:01:00,34.0,32.0,-100.00,West,280,8.0,15.0,91,0.00,,,0.00,2.000000,,2013-05-30 13:01:00,
2013-05-30 06:11:00,34.0,32.0,-100.00,West,280,8.0,15.0,91,0.00,,,0.00,2.000000,,2013-05-30 13:11:00,
2013-05-30 06:22:00,34.0,32.0,-100.00,West,280,8.0,15.0,91,0.00,,,0.00,2.000000,,2013-05-30 13:22:00,
2013-05-30 06:32:00,34.0,32.0,-100.00,West,280,8.0,15.0,91,0.00,,,0.00,2.000000,,2013-05-30 13:32:00,
2013-05-30 06:52:00,36.0,34.0,-100.00,WNW,294,11.0,19.0,92,0.00,,,-99.99,57.000000,,2013-05-30 13:52:00,
2013-05-30 07:01:00,36.0,34.0,-100.00,WNW,294,11.0,19.0,92,0.00,,,-99.99,57.000000,,2013-05-30 14:01:00,
2013-05-30 07:11:00,36.0,34.0,-100.00,WNW,294,11.0,19.0,92,0.00,,,-99.99,57.000000,,2013-05-30 14:11:00,
2013-05-30 07:21:00,36.0,34.0,-100.00,WNW,294,11.0,19.0,92,0.00,,,-99.99,57.000000,,2013-05-30 14:21:00,
2013-05-30 07:32:00,36.0,34.0,-100.00,WNW,294,11.0,19.0,92,0.00,,,-99.99,57.000000,,2013-05-30 14:32:00,
2013-05-30 07:52:00,39.0,34.0,-100.00,WNW,288,8.0,18.0,83,0.00,,,0.00,180.000000,,2013-05-30 14:52:00,
2013-05-30 08:01:00,39.0,34.0,-100.00,WNW,288,8.0,18.0,83,0.00,,,0.00,180.000000,,2013-05-30 15:01:00,
2013-05-30 08:11:00,39.0,34.0,-100.00,WNW,288,8.0,18.0,83,0.00,,,0.00,180.000000,,2013-05-30 15:11:00,
2013-05-30 08:22:00,39.0,34.0,-100.00,WNW,288,8.0,18.0,83,0.00,,,0.00,180.000000,,2013-05-30 15:22:00,
2013-05-30 08:33:00,39.0,34.0,-100.00,WNW,288,8.0,18.0,83,0.00,,,0.00,180.000000,,2013-05-30 15:33:00,
2013-05-30 08:53:00,42.0,33.0,-100.00,West,272,6.0,14.0,71,0.00,,,0.00,433.000000,,2013-05-30 15:53:00,
2013-05-30 09:03:00,42.0,33.0,-100.00,West,272,6.0,14.0,71,0.00,,,0.00,433.000000,,2013-05-30 16:03:00,
2013-05-30 09:12:00,42.0,33.0,-100.00,West,272,6.0,14.0,71,0.00,,,0.00,433.000000,,2013-05-30 16:12:00,
2013-05-30 09:22:00,42.0,33.0,-100.00,West,272,6.0,14.0,71,0.00,,,0.00,433.000000,,2013-05-30 16:22:00,
2013-05-30 09:33:00,42.0,33.0,-100.00,West,272,6.0,14.0,71,0.00,,,0.00,433.000000,,2013-05-30 16:33:00,
2013-05-30 09:53:00,44.0,33.0,-100.00,WSW,243,7.0,13.0,66,0.00,,,0.00,477.000000,,2013-05-30 16:53:00,
2013-05-30 10:02:00,44.0,33.0,-100.00,WSW,243,7.0,13.0,66,0.00,,,0.00,477.000000,,2013-05-30 17:02:00,
2013-05-30 10:11:00,44.0,33.0,-100.00,WSW,243,7.0,13.0,66,0.00,,,0.00,477.000000,,2013-05-30 17:11:00,
2013-05-30 10:22:00,44.0,33.0,-100.00,WSW,243,7.0,13.0,66,0.00,,,0.00,477.000000,,2013-05-30 17:22:00,
2013-05-30 10:32:00,44.0,33.0,-100.00,WSW,243,7.0,13.0,66,0.00,,,0.00,477.000000,,2013-05-30 17:32:00,
2013-05-30 10:52:00,47.0,34.0,-100.00,WNW,286,6.0,15.0,61,0.00,,,0.00,608.000000,,2013-05-30 17:52:00,
2013-05-30 11:02:00,47.0,34.0,-100.00,WNW,286,6.0,15.0,61,0.00,,,0.00,608.000000,,2013-05-30 18:02:00,
2013-05-30 11:11:00,47.0,34.0,-100.00,WNW,286,6.0,15.0,61,0.00,,,0.00,608.000000,,2013-05-30 18:11:00,
2013-05-30 11:21:00,47.0,34.0,-100.00,WNW,286,6.0,15.0,61,0.00,,,0.00,608.000000,,2013-05-30 18:21:00,
2013-05-30 11:32:00,47.0,34.0,-100.00,WNW,286,6.0,15.0,61,0.00,,,0.00,608.000000,,2013-05-30 18:32:00,
2013-05-30 11:52:00,48.0,33.0,-100.00,West,268,7.0,15.0,55,0.00,,,0.00,743.000000,,2013-05-30 18:52:00,
2013-05-30 12:01:00,48.0,33.0,-100.00,West,268,7.0,15.0,55,0.00,,,0.00,743.000000,,2013-05-30 19:01:00,
2013-05-30 12:11:00,48.0,33.0,-100.00,West,268,7.0,15.0,55,0.00,,,0.00,743.000000,,2013-05-30 19:11:00,
2013-05-30 12:22:00,48.0,33.0,-100.00,West,268,7.0,15.0,55,0.00,,,0.00,743.000000,,2013-05-30 19:22:00,
2013-05-30 12:32:00,48.0,33.0,-100.00,West,268,7.0,15.0,55,0.00,,,0.00,743.000000,,2013-05-30 19:32:00,
2013-05-30 12:52:00,51.0,34.0,-100.00,WNW,288,7.0,17.0,53,0.00,,,0.00,871.000000,,2013-05-30 19:52:00,
2013-05-30 13:01:00,51.0,34.0,-100.00,WNW,288,7.0,17.0,53,0.00,,,0.00,871.000000,,2013-05-30 20:01:00,
2013-05-30 13:11:00,51.0,34.0,-100.00,WNW,288,7.0,17.0,53,0.00,,,0.00,871.000000,,2013-05-30 20:11:00,
2013-05-30 13:22:00,51.0,34.0,-100.00,WNW,288,7.0,17.0,53,0.00,,,0.00,871.000000,,2013-05-30 20:22:00,
2013-05-30 13:33:00,51.0,34.0,-100.00,WNW,288,7.0,17.0,53,0.00,,,0.00,871.000000,,2013-05-30 20:33:00,
2013-05-30 13:52:00,52.0,32.0,-100.00,West,278,8.0,15.0,47,0.00,,,0.00,890.000000,,2013-05-30 20:52:00,
2013-05-30 14:01:00,52.0,32.0,-100.00,West,278,8.0,15.0,47,0.00,,,0.00,890.000000,,2013-05-30 21:01:00,
2013-05-30 14:11:00,52.0,32.0,-100.00,West,278,8.0,15.0,47,0.00,,,0.00,890.000000,,2013-05-30 21:11:00,
2013-05-30 14:22:00,52.0,32.0,-100.00,West,278,8.0,15.0,47,0.00,,,0.00,890.000000,,2013-05-30 21:22:00,
2013-05-30 14:33:00,52.0,32.0,-100.00,West,278,8.0,15.0,47,0.00,,,0.00,890.000000,,2013-05-30 21:33:00,
2013-05-30 14:53:00,54.0,34.0,-100.00,NW,309,9.0,16.0,47,0.00,,,0.00,971.000000,,2013-05-30 21:53:00,
2013-05-30 15:02:00,54.0,34.0,-100.00,NW,309,9.0,16.0,47,0.00,,,0.00,971.000000,,2013-05-30 22:02:00,
2013-05-30 15:12:00,54.0,34.0,-100.00,NW,309,9.0,16.0,47,0.00,,,0.00,971.000000,,2013-05-30 22:12:00,
2013-05-30 15:22:00,54.0,34.0,-100.00,NW,309,9.0,16.0,47,0.00,,,0.00,971.000000,,2013-05-30 22:22:00,
2013-05-30 15:32:00,54.0,34.0,-100.00,NW,309,9.0,16.0,47,0.00,,,0.00,971.000000,,2013-05-30 22:32:00,
2013-05-30 15:52:00,52.0,31.0,-100.00,NW,321,8.0,16.0,45,0.00,,,0.00,657.000000,,2013-05-30 22:52:00,
2013-05-30 16:02:00,52.0,31.0,-100.00,NW,321,8.0,16.0,45,0.00,,,0.00,657.000000,,2013-05-30 23:02:00,
2013-05-30 16:11:00,52.0,31.0,-100.00,NW,321,8.0,16.0,45,0.00,,,0.00,657.000000,,2013-05-30 23:11:00,
2013-05-30 16:22:00,52.0,31.0,-100.00,NW,321,8.0,16.0,45,0.00,,,0.00,657.000000,,2013-05-30 23:22:00,
2013-05-30 16:31:00,52.0,31.0,-100.00,NW,321,8.0,16.0,45,0.00,,,0.00,657.000000,,2013-05-30 23:31:00,
2013-05-30 16:52:00,53.0,33.0,-100.00,NW,321,10.0,16.0,46,0.00,,,0.00,723.000000,,2013-05-30 23:52:00,
2013-05-30 17:01:00,53.0,33.0,-100.00,NW,321,10.0,16.0,46,0.00,,,0.00,723.000000,,2013-05-31 00:01:00,
2013-05-30 17:11:00,53.0,33.0,-100.00,NW,321,10.0,16.0,46,0.00,,,0.00,723.000000,,2013-05-31 00:11:00,
2013-05-30 17:21:00,53.0,33.0,-100.00,NW,321,10.0,16.0,46,0.00,,,0.00,723.000000,,2013-05-31 00:21:00,
2013-05-30 17:32:00,53.0,33.0,-100.00,NW,321,10.0,16.0,46,0.00,,,0.00,723.000000,,2013-05-31 00:32:00,
2013-05-30 17:52:00,53.0,34.0,-100.00,NW,321,9.0,19.0,48,0.00,,,0.00,527.000000,,2013-05-31 00:52:00,
2013-05-30 18:01:00,53.0,34.0,-100.00,NW,321,9.0,19.0,48,0.00,,,0.00,527.000000,,2013-05-31 01:01:00,
2013-05-30 18:12:00,53.0,34.0,-100.00,NW,321,9.0,19.0,48,0.00,,,0.00,527.000000,,2013-05-31 01:12:00,
2013-05-30 18:21:00,53.0,34.0,-100.00,NW,321,9.0,19.0,48,0.00,,,0.00,527.000000,,2013-05-31 01:21:00,
2013-05-30 18:31:00,53.0,34.0,-100.00,NW,321,9.0,19.0,48,0.00,,,0.00,527.000000,,2013-05-31 01:31:00,
2013-05-30 18:52:00,51.0,37.0,-100.00,NNW,330,9.0,21.0,59,0.00,,,0.00,387.000000,,2013-05-31 01:52:00,
2013-05-30 19:02:00,51.0,37.0,-100.00,NNW,330,9.0,21.0,59,0.00,,,0.00,387.000000,,2013-05-31 02:02:00,
2013-05-30 19:11:00,51.0,37.0,-100.00,NNW,330,9.0,21.0,59,0.00,,,0.00,387.000000,,2013-05-31 02:11:00,
2013-05-30 19:21:00,51.0,37.0,-100.00,NNW,330,9.0,21.0,59,0.00,,,0.00,387.000000,,2013-05-31 02:21:00,
2013-05-30 19:31:00,51.0,37.0,-100.00,NNW,330,9.0,21.0,59,0.00,,,0.00,387.000000,,2013-05-31 02:31:00,
2013-05-30 19:52:00,47.0,35.0,-100.00,NW,323,10.0,18.0,62,0.00,,,0.00,246.000000,,2013-05-31 02:52:00,
2013-05-30 20:01:00,47.0,35.0,-100.00,NW,323,10.0,18.0,62,0.00,,,0.00,246.000000,,2013-05-31 03:01:00,
2013-05-30 20:11:00,47.0,35.0,-100.00,NW,323,10.0,18.0,62,0.00,,,0.00,246.000000,,2013-05-31 03:11:00,
2013-05-30 20:21:00,47.0,35.0,-100.00,NW,323,10.0,18.0,62,0.00,,,0.00,246.000000,,2013-05-31 03:21:00,
2013-05-30 20:33:00,47.0,35.0,-100.00,NW,323,10.0,18.0,62,0.00,,,0.00,246.000000,,2013-05-31 03:33:00,
2013-05-30 20:53:00,44.0,34.0,-100.00,NW,324,10.0,19.0,68,0.00,,,0.00,68.000000,,2013-05-31 03:53:00,
2013-05-30 21:02:00,44.0,34.0,-100.00,NW,324,10.0,19.0,68,0.00,,,0.00,68.000000,,2013-05-31 04:02:00,
2013-05-30 21:12:00,44.0,34.0,-100.00,NW,324,10.0,19.0,68,0.00,,,0.00,68.000000,,2013-05-31 04:12:00,
2013-05-30 21:22:00,44.0,34.0,-100.00,NW,324,10.0,19.0,68,0.00,,,0.00,68.000000,,2013-05-31 04:22:00,
2013-05-30 21:32:00,44.0,34.0,-100.00,NW,324,10.0,19.0,68,0.00,,,0.00,68.000000,,2013-05-31 04:32:00,
2013-05-30 21:53:00,42.0,36.0,-100.00,NNW,328,9.0,19.0,80,0.00,,,0.00,2.000000,,2013-05-31 04:53:00,
2013-05-30 22:02:00,42.0,36.0,-100.00,NNW,328,9.0,19.0,80,0.00,,,0.00,2.000000,,2013-05-31 05:02:00,
2013-05-30 22:12:00,42.0,36.0,-100.00,NNW,328,9.0,19.0,80,0.00,,,0.00,2.000000,,2013-05-31 05:12:00,
2013-05-30 22:22:00,42.0,36.0,-100.00,NNW,328,9.0,19.0,80,0.00,,,0.00,2.000000,,2013-05-31 05:22:00,
2013-05-30 22:31:00,42.0,36.0,-100.00,NNW,328,9.0,19.0,80,0.00,,,0.00,2.000000,,2013-05-31 05:31:00,
2013-05-30 22:52:00,40.0,35.0,-100.00,NNW,336,8.0,16.0,81,0.00,,,0.00,0.000000,,2013-05-31 05:52:00,
2013-05-30 23:01:00,40.0,35.0,-100.00,NNW,336,8.0,16.0,81,0.00,,,0.00,0.000000,,2013-05-31 06:01:00,
2013-05-30 23:12:00,40.0,35.0,-100.00,NNW,336,8.0,16.0,81,0.00,,,0.00,0.000000,,2013-05-31 06:12:00,
2013-05-30 23:21:00,40.0,35.0,-100.00,NNW,336,8.0,16.0,81,0.00,,,0.00,0.000000,,2013-05-31 06:21:00,
2013-05-30 23:31:00,40.0,35.0,-100.00,NNW,336,8.0,16.0,81,0.00,,,0.00,0.000000,,2013-05-31 06:31:00,
2013-05-30 23:52:00,40.0,35.0,-100.00,NNW,333,9.0,16.0,82,0.00,,,0.00,0.000000,,2013-05-31 06:52:00,